Blythe, CA

7:55 AM PDT on May 28, 2017 (GMT -0700)
Blythe

Weather History for KBLH - September, 2013

Change the Weather History Date:

Tuesday, September 17, 2013

  Actual Average Record
Temperature  
Mean Temperature 94 °F -  
Max Temperature 109 °F 99 °F 109 °F (1998)
Min Temperature 80 °F 72 °F 62 °F (1977)
Cooling Degree Days 30    
Growing Degree Days 44 (Base 50)    
Moisture  
Dew Point 44 °F    
Average Humidity 20    
Maximum Humidity 36    
Minimum Humidity 9    
Precipitation  
Precipitation 0.00 in - - ()
Sea Level Pressure  
Sea Level Pressure 29.60 in    
Wind  
Wind Speed 5 mph (SSW)    
Max Wind Speed 21 mph    
Max Gust Speed 26 mph    
Visibility 10 miles    
Events      
Averages and records for this station are not official NWS values.
T = Trace of Precipitation, MM = Missing Value Source: NWS Daily Summary

Daily Weather History Graph

Daily Weather History Graph

Search for Another Location

Airport or City:

Trip Planner

Search our weather history database for the weather conditions in past years. The results will help you decide how hot, cold, wet, or windy it might be!

Date:

Astronomy

Sep. 17, 2013 Rise Set
Actual Time 6:23 AM PDT 6:42 PM PDT
Civil Twilight 5:58 AM PDT 7:06 PM PDT
Nautical Twilight 5:29 AM PDT 7:36 PM PDT
Astronomical Twilight 5:00 AM PDT 8:05 PM PDT
Moon 5:29 PM PDT (9/17) 4:27 AM PDT (9/17)
Length of Visible Light 13h 08m
Length of Day
12h 18m
Waxing Gibbous, 96% of the Moon is Illuminated
Sep 17
Waxing Gibbous
Sep 19
Full
Sep 26
Last Quarter
Oct 4
New
Oct 11
First Quarter

Hourly Weather History & Observations

Time (PDT) Temp. Dew Point Humidity Pressure Visibility Wind Dir Wind Speed Gust Speed Precip Events Conditions
12:52 AM 87.1 °F 51.1 °F 29% 29.64 in 10.0 mi Calm Calm - N/A   Clear
1:52 AM 84.9 °F 48.9 °F 29% 29.64 in 10.0 mi Calm Calm - N/A   Clear
2:52 AM 80.1 °F 51.1 °F 36% 29.63 in 10.0 mi NE 5.8 mph - N/A   Clear
3:52 AM 82.0 °F 46.9 °F 29% 29.62 in 10.0 mi NNW 4.6 mph - N/A   Clear
4:52 AM 82.0 °F 46.0 °F 28% 29.62 in 10.0 mi NW 3.5 mph - N/A   Clear
5:52 AM 80.1 °F 50.0 °F 35% 29.63 in 10.0 mi WNW 5.8 mph - N/A   Clear
6:52 AM 81.0 °F 48.9 °F 33% 29.65 in 10.0 mi SSW 3.5 mph - N/A   Clear
7:52 AM 84.0 °F 48.9 °F 29% 29.66 in 10.0 mi NNW 4.6 mph - N/A   Clear
8:52 AM 87.1 °F 52.0 °F 30% 29.67 in 10.0 mi Calm Calm - N/A   Clear
9:52 AM 93.9 °F 46.9 °F 20% 29.67 in 10.0 mi Calm Calm - N/A   Clear
10:52 AM 98.1 °F 46.0 °F 17% 29.65 in 10.0 mi South 5.8 mph - N/A   Clear
11:52 AM 102.0 °F 48.0 °F 16% 29.63 in 10.0 mi South 9.2 mph - N/A   Clear
12:52 PM 104.0 °F 44.1 °F 13% 29.61 in 10.0 mi SSE 10.4 mph - N/A   Clear
1:52 PM 105.1 °F 42.1 °F 12% 29.58 in 10.0 mi SSE 5.8 mph - N/A   Partly Cloudy
2:52 PM 108.0 °F 42.1 °F 11% 29.55 in 10.0 mi SSE 13.8 mph 23.0 mph N/A   Partly Cloudy
3:52 PM 109.0 °F 37.0 °F 9% 29.54 in 10.0 mi South 18.4 mph - N/A   Scattered Clouds
4:52 PM 107.1 °F 36.0 °F 9% 29.52 in 10.0 mi South 17.3 mph 26.5 mph N/A   Partly Cloudy
5:52 PM 105.1 °F 36.0 °F 9% 29.52 in 10.0 mi SSW 20.7 mph - N/A   Partly Cloudy
6:52 PM 100.9 °F 37.9 °F 11% 29.52 in 10.0 mi SSW 11.5 mph - N/A   Partly Cloudy
7:52 PM 96.1 °F 37.9 °F 13% 29.53 in 10.0 mi WSW 6.9 mph - N/A   Clear
8:52 PM 93.9 °F 37.0 °F 14% 29.55 in 10.0 mi WSW 9.2 mph - N/A   Clear
9:52 PM 91.9 °F 35.1 °F 13% 29.56 in 10.0 mi West 6.9 mph - N/A   Clear
10:52 PM 88.0 °F 37.9 °F 17% 29.56 in 10.0 mi Calm Calm - N/A   Clear
11:52 PM 84.0 °F 45.0 °F 25% 29.57 in 10.0 mi SSE 6.9 mph - N/A   Clear